Temp_Advection
nan nan nan nan nan nan nan nan nan nan nan nan nan nan nan nan nan nan nan nan nan nan nan nan nan nan nan nan nan nan nan nan nan nan nan nan nan nan nan nan nan nan nan nan nan nan nan nan nan nan nan nan nan nan nan nan nan nan nan nan nan nan nan
nan -0 -0 -0 -0 -0 -0 -0 -0 -0 -0 -0 -0 -0 -0 0 0 -0 0 1 0 1 1 -0 -0 1 1 1 -0 -0 0 0 0 0 -0 0 1 1 1 2 1 -0 -2 -1 1 1 1 1 -0 -2 -0 0 0 0 -0 -0 -0 -0 0 0 0 -0 nan
nan -0 -0 -0 -0 -0 -0 -0 -0 -0 -0 -0 -0 0 0 -0 -0 -0 -0 -0 -0 1 1 -0 -1 0 2 1 -1 -1 0 1 1 0 -1 -1 0 0 1 2 2 0 -1 -1 0 1 1 1 -0 -2 -1 0 0 1 0 -0 -0 -0 -0 -0 -0 -0 nan
nan -0 -0 -0 -0 -0 -0 -0 -0 -0 -0 -0 -0 -0 -0 -0 -0 -0 -0 -0 0 1 1 -0 -2 -0 2 1 -1 -1 1 1 1 0 -0 -1 -0 0 0 2 2 0 -0 -1 -1 0 1 1 0 -0 -1 -1 0 1 1 0 -0 -0 -0 -0 -0 -0 nan
nan -0 -0 -0 -0 -0 -0 -0 -0 -0 -0 -0 -0 -0 -0 -0 -0 -0 -0 -0 0 0 1 -0 -1 0 2 1 -1 -0 0 1 0 0 -0 -1 -0 0 1 2 1 0 1 0 -2 -0 2 2 1 1 -0 -1 -1 1 1 0 0 -0 -0 -0 -0 -0 nan
nan -1 -1 -1 -1 -0 -0 -0 -0 -0 -0 -0 -0 -0 -0 -0 -0 -0 -0 -0 -0 0 0 -0 -1 1 2 1 -0 -0 0 0 0 0 -0 -1 -0 0 1 1 1 0 1 -0 -2 -0 2 2 2 2 1 -1 -1 1 1 0 0 0 0 -0 -0 -0 nan
nan -1 -1 -1 -1 -1 -1 -1 -0 -0 -0 -0 -0 -0 -0 -0 -0 -0 -0 -0 -0 0 0 -0 -0 0 1 1 0 -0 0 1 1 0 -0 -0 -0 0 1 0 0 1 1 -0 -1 0 1 2 2 2 1 0 0 0 -0 0 0 0 -0 -0 -0 -0 nan
nan -1 -1 -1 -1 -1 -1 -1 -1 -1 -1 -1 -1 -1 -1 -1 -0 -0 -1 -0 -0 0 0 -0 -0 -0 0 0 0 -0 0 1 1 1 0 -0 0 0 0 0 0 1 1 -0 -0 -0 0 1 2 1 1 1 1 -0 -1 0 0 -0 -0 -0 -0 -0 nan
nan -1 -1 -1 -1 -1 -1 -1 -1 -1 -1 -0 -0 -1 -1 -1 -1 -1 -1 -1 -1 -1 -1 -0 -0 -0 -0 0 0 0 -0 0 1 1 0 -0 0 0 0 0 0 1 1 0 0 -0 1 1 1 1 1 0 -1 -1 -0 1 0 -0 -0 -0 -0 -0 nan
nan -1 -1 -1 -1 -1 -0 -0 -0 -0 -0 -0 -0 -1 -1 -1 -1 -1 -0 -0 -1 -1 -1 -1 -1 -1 -0 0 0 -0 -0 -0 0 1 0 0 0 0 0 0 0 0 0 1 0 -0 1 2 -0 -0 1 -1 -3 0 2 1 -0 -0 0 1 0 -0 nan
nan -0 -0 -0 -0 -1 -0 -0 -0 -0 -0 0 -0 -0 -0 -0 -0 -0 -0 -0 -0 -1 -1 -1 -1 -1 -1 -0 -0 -0 -0 -0 -0 0 0 0 0 0 0 0 0 0 0 0 1 0 1 1 -2 -1 2 0 -3 -0 2 1 0 0 0 1 0 -0 nan
nan -0 -0 -0 -0 -0 -0 -0 -0 -0 -0 -0 0 -0 -1 -1 -0 -0 -0 -0 -1 -1 -1 -1 -1 -0 -1 -1 -1 -1 -1 -1 -1 -0 -0 0 0 0 0 0 -0 0 0 0 1 0 1 0 -2 -1 2 -0 -2 -0 2 2 1 0 1 1 0 -0 nan
nan -0 -0 -0 -0 -0 -0 -0 -0 -0 -0 -0 0 -0 -0 -1 -0 -1 -1 -0 -1 -1 -1 -1 -1 -1 -1 -1 -0 -1 -0 -1 -1 -1 -1 -0 -0 -0 0 0 -0 -0 0 -0 0 0 -0 -0 0 0 -0 -1 -0 2 2 1 0 1 2 1 -1 -1 nan
nan -0 -0 -0 -0 -0 -0 -0 -0 -0 -0 -0 -0 -0 -0 -1 -1 -1 -1 -1 -0 -1 -1 -1 -1 -1 -1 -1 -1 -1 -1 -1 -1 -1 -1 -1 -1 -1 -0 0 0 0 0 -0 0 -0 -1 -0 1 0 -1 -0 1 1 1 0 0 1 1 -1 -2 0 nan
nan -0 -0 -0 -0 -0 -0 -0 -0 -0 -0 -0 -0 -0 -0 -1 -2 -1 -0 0 -0 -0 -0 -1 -1 -1 -1 -1 -1 -1 -1 -1 -1 -1 -1 -1 -1 -1 -1 -0 -0 0 0 0 0 0 -0 -0 0 0 -0 1 1 0 -0 -0 0 1 1 -0 1 3 nan
nan -0 -0 -0 -0 -0 -0 -0 -0 -0 -0 0 0 -0 -0 -0 -2 -2 -1 0 -0 -0 -0 -1 -1 -0 -1 -1 -1 -1 -1 -0 -0 -1 -1 -1 -1 -1 -1 -1 -1 0 1 0 -0 -0 -0 -0 -0 0 0 1 1 0 -0 1 1 1 1 1 2 3 nan
nan -0 -1 -0 -1 -1 -0 -0 -0 -0 -0 -0 0 0 -0 0 -1 -2 -2 -1 -1 -1 -1 -1 -0 0 -0 -1 -1 -1 -1 -0 -0 -1 -1 -0 -0 -1 -1 -2 -2 -1 0 0 -0 -1 -0 -0 -0 0 0 0 1 1 0 1 1 1 1 2 2 1 nan
nan -0 -1 -0 -1 -1 -0 -0 -0 -0 -0 -0 0 0 -0 -0 -1 -2 -2 -1 -1 -2 -2 -2 -1 0 -0 -1 -1 -1 -0 -0 -0 -1 -1 -0 -0 -1 -1 -1 -1 -1 -1 -0 -0 -1 -1 -0 -0 0 0 0 1 1 1 1 0 0 1 2 0 -0 nan
nan -0 -0 -0 -0 -1 -1 -0 -0 -0 -0 -0 0 0 0 -0 -0 -1 -1 -0 -0 -2 -2 -2 -1 -1 -0 -0 -0 -1 -1 -1 -1 -1 -1 -1 -1 -1 -1 -1 -0 -0 -1 -1 -1 -1 -1 -0 -0 0 0 0 0 1 1 0 0 1 2 1 -0 1 nan
nan 0 -0 -0 -0 -0 -1 -0 -0 -0 -0 -0 -0 0 0 0 -0 -1 -1 -0 -0 -1 -2 -2 -2 -1 -1 -0 -0 -1 -1 -1 -1 -1 -1 -1 -1 -0 -1 -1 -1 -1 -0 -1 -1 -1 -1 -1 -0 0 0 0 0 0 0 0 0 1 1 0 1 1 nan
nan -0 -0 -0 -0 -0 -0 -0 -0 -0 0 0 0 0 0 0 -0 -0 -0 0 -0 -1 -2 -2 -2 -2 -1 -1 0 -0 -1 -1 -1 -1 -1 -0 -0 0 -0 -2 -2 -1 -1 -0 -0 -1 -1 -1 -1 -0 0 0 0 0 0 0 0 0 0 0 1 1 nan
nan -0 -0 -0 -0 -0 -0 -0 -0 -0 -0 -0 -0 0 0 -0 -0 -0 -0 0 -0 -1 -1 -1 -1 -2 -2 -1 -0 0 -0 -1 -2 -1 -0 -0 -0 -1 -1 -1 -1 -1 -1 -1 -0 -0 -1 -1 -1 -0 -0 -0 0 -0 -0 0 0 0 0 0 1 1 nan
nan -0 -0 -0 -0 -0 -0 -0 -0 -0 -1 -1 -1 -0 -0 -1 -0 -0 -0 0 -0 -1 -1 -1 -1 -1 -2 -1 -1 -1 -0 -1 -1 -1 -1 -1 -1 -1 -1 -0 -0 -1 -1 -1 -1 -1 -0 -1 -1 -1 -1 -0 -0 -0 -0 0 0 -0 0 0 1 1 nan
nan -0 -0 -0 -0 -0 -1 -1 -0 -0 -1 -1 -1 -1 -0 -0 -1 -1 -0 -0 -0 -1 -1 -1 -1 -1 -1 -1 -1 -1 -1 -1 -1 -1 -1 -1 -1 -1 -1 -1 -1 -1 -1 -1 -2 -1 -1 -1 -1 -1 -1 -0 -0 -0 -1 -0 -0 0 0 0 0 0 nan
nan -1 -1 -1 -1 -1 -1 -1 -1 -1 -1 -1 -1 -1 -0 -0 -1 -1 -1 -0 -0 -0 -0 -0 -0 -1 -1 -1 -1 -1 -1 -1 -1 -1 -1 -1 -1 -1 -1 -1 -1 -1 -1 -1 -1 -1 -1 -1 -1 -1 -1 -1 -0 -0 -0 -1 -1 -0 -0 0 0 0 nan
nan -1 -1 -1 -1 -1 -1 -1 -1 -1 -1 -1 -1 -1 -1 -1 -1 -2 -2 -1 -0 -0 -0 -1 -1 -1 -1 -1 -1 -2 -2 -2 -2 -2 -1 -1 -1 -1 -1 -1 -1 -1 -1 -1 -1 -1 -1 -1 -1 -1 -1 -0 -0 -1 -1 -0 -0 -0 -0 -0 -0 0 nan
nan -1 -1 -1 -1 -1 -1 -1 -1 -1 -1 -1 -1 -0 -0 -0 -1 -3 -2 -1 -1 -1 -1 -1 -1 -1 -1 -1 -1 -1 -1 -1 -2 -2 -2 -1 -1 -1 -1 -1 -1 -1 -1 -1 -1 -1 -1 -1 -1 -2 -1 -1 -0 -1 -1 -1 -0 -0 0 -0 -0 0 nan
nan -1 -1 -1 -1 -1 -1 -1 -0 -1 -1 -1 -0 0 -0 -0 -1 -2 -2 -1 -1 -1 -1 -1 -1 -1 -1 -1 -1 -1 -1 -1 -1 -1 -1 -1 -1 -1 -1 -1 -1 -1 -1 -1 -1 -1 -1 -2 -2 -2 -2 -1 -1 -1 -1 -1 -1 -0 0 0 0 0 nan
nan -1 -2 -1 -0 -1 -1 -1 -0 -1 -1 -1 -0 0 0 -0 -1 -2 -1 -0 -1 -1 -1 -1 -1 -1 -1 -1 -1 -1 -1 -1 -1 -1 -1 -1 -1 -1 -1 -1 -1 -1 -1 -1 -1 -1 -1 -1 -2 -2 -2 -1 -1 -1 -1 -1 -1 -1 -0 0 0 0 nan
nan -1 -2 -0 0 -0 -1 -0 -0 -0 -1 -1 -0 -0 1 1 -1 -2 -1 -0 -0 -0 -1 -1 -1 -1 -1 -1 -1 -1 -2 -2 -2 -2 -2 -2 -2 -2 -1 -1 -1 -1 -1 -1 -1 -1 -1 -1 -2 -1 -1 -1 -2 -1 -1 -1 -0 -0 -0 -0 0 0 nan
nan -0 -1 -0 0 -0 -0 -0 0 0 0 -0 -1 -1 1 1 -0 -1 -0 -0 -0 -0 -0 -0 -0 -1 -1 -1 -1 -1 -1 -1 -2 -2 -2 -2 -2 -2 -2 -2 -2 -1 -1 -1 -1 -1 -1 -1 -1 -1 -1 -1 -2 -2 -2 -1 -0 0 -0 -0 -0 0 nan
nan 1 0 0 0 -0 -0 -0 0 0 1 0 -1 -1 1 1 0 -0 -0 -0 -0 -0 -0 -0 -0 -0 -1 -1 -1 -1 -0 -1 -1 -1 -1 -1 -1 -1 -1 -2 -2 -1 -1 -1 -1 -1 -1 -1 -1 -2 -2 -2 -2 -2 -2 -1 -0 -0 -1 -1 -0 0 nan
nan 0 0 0 0 0 -0 -0 0 0 0 0 -0 -0 -0 0 -0 -0 -0 -0 -0 0 -0 -0 -0 -0 -0 -1 -0 -0 -0 0 -0 -0 -0 -0 -1 -1 -1 -1 -1 -1 -1 -1 -1 -1 -1 -1 -1 -1 -2 -2 -2 -2 -2 -1 -1 -1 -1 -2 -1 -0 nan
nan 0 0 0 0 0 0 0 0 0 0 0 0 -0 -0 -0 -0 -0 -0 0 -0 -0 -0 -0 -0 -0 -0 -0 -0 -0 -0 0 0 0 0 0 -0 -0 -1 -1 -1 -1 -1 -1 -1 -1 -1 -1 -1 -1 -1 -2 -2 -2 -2 -2 -1 -1 -1 -2 -2 -1 nan
nan 0 0 0 0 0 0 0 0 0 0 0 0 0 0 0 0 0 0 0 -0 -0 -1 -0 -0 -0 -0 -0 0 -0 -0 -0 -0 0 0 0 0 -0 -0 -0 -0 -0 -1 -1 -1 -1 -1 -1 -1 -1 -1 -1 -2 -2 -2 -2 -2 -2 -1 -1 -1 -2 nan
nan nan nan nan nan nan nan nan nan nan nan nan nan nan nan nan nan nan nan nan nan nan nan nan nan nan nan nan nan nan nan nan nan nan nan nan nan nan nan nan nan nan nan nan nan nan nan nan nan nan nan nan nan nan nan nan nan nan nan nan nan nan nan
Wind_Speed
18 19 19 20 20 20 21 21 22 22 23 24 26 27 28 29 30 32 33 33 33 35 36 37 37 37 37 37 38 39 40 41 41 41 43 42 44 46 45 47 45 45 53 50 37 35 32 29 38 42 40 39 39 39 40 37 37 39 40 43 47 47 46
19 19 20 20 20 21 21 21 22 22 22 23 24 25 26 27 28 30 31 32 33 34 34 35 37 36 36 36 37 39 39 40 40 41 43 43 43 46 45 46 47 47 52 53 45 38 34 34 41 47 45 43 42 41 41 39 38 39 41 43 45 45 45
20 20 20 20 21 21 21 22 22 22 23 24 24 25 25 26 27 28 29 30 31 32 32 33 35 35 34 34 36 38 38 38 40 41 43 44 43 45 45 45 47 47 49 53 50 42 36 34 41 47 48 46 45 43 41 40 39 39 41 43 44 45 44
20 20 20 21 21 22 22 22 23 23 23 24 24 25 26 26 27 28 29 30 30 30 30 31 34 33 32 33 35 36 36 37 39 40 42 43 43 43 45 45 46 48 49 51 52 48 41 35 36 42 46 46 45 43 43 42 40 40 42 43 45 45 44
20 20 20 21 21 22 22 23 23 23 23 23 24 24 25 26 27 28 29 30 30 31 30 31 33 33 31 33 34 35 37 38 39 40 41 43 43 43 44 45 47 48 49 50 51 50 47 40 36 36 39 44 45 43 42 42 42 42 43 45 46 45 45
19 19 20 20 20 21 22 22 22 23 23 24 24 24 25 26 26 27 28 29 30 30 30 31 32 33 32 33 34 35 38 39 39 40 41 42 43 44 44 46 47 48 49 51 51 50 49 47 43 39 38 42 45 44 42 43 44 44 45 47 47 46 47
19 19 19 19 19 19 20 20 21 22 22 23 23 24 25 26 26 27 28 29 29 29 30 31 32 33 33 33 34 36 37 38 38 40 41 42 43 43 44 45 46 47 48 50 50 50 50 51 49 47 46 45 42 43 44 43 44 45 46 48 49 48 49
18 18 18 18 18 18 18 19 19 19 20 20 21 21 23 24 25 27 28 28 29 29 29 30 31 32 33 33 34 35 36 37 38 39 40 41 42 42 43 44 44 46 47 48 49 50 50 51 50 49 50 48 42 43 46 44 43 46 46 47 49 49 49
17 17 17 17 17 17 17 17 16 16 16 16 16 17 19 21 22 23 24 24 25 26 27 28 29 30 31 32 32 33 35 36 37 37 39 40 40 41 42 43 45 46 46 48 49 49 49 49 49 46 43 46 49 48 48 46 44 46 46 46 47 48 48
15 15 16 15 15 14 14 14 13 13 12 11 10 13 15 17 18 18 18 19 21 23 24 25 26 28 29 29 29 30 31 32 33 34 35 37 38 40 41 41 43 45 46 48 48 50 50 48 49 47 38 41 52 53 49 48 47 47 46 45 46 47 47
14 14 15 14 13 13 12 11 11 10 10 9 8 10 14 16 16 17 18 19 21 23 24 25 26 26 26 26 26 27 27 28 29 29 30 32 33 36 39 40 43 44 45 47 48 50 50 47 50 53 43 38 47 53 50 49 49 47 46 46 47 49 49
13 13 14 13 12 12 11 11 10 9 10 10 7 8 16 18 17 18 19 21 23 24 24 25 26 26 26 25 25 25 26 26 27 27 27 28 28 30 32 35 40 43 44 46 47 48 50 48 49 52 48 42 47 51 49 49 49 48 47 47 48 49 49
13 12 13 13 12 11 11 10 10 9 9 9 6 7 16 21 19 19 20 21 22 23 23 24 25 26 26 26 26 26 26 26 27 28 28 28 28 28 29 30 33 38 41 45 47 48 50 51 50 50 49 48 49 50 48 48 50 49 47 47 48 49 49
12 12 13 13 12 12 11 10 10 9 10 10 7 7 16 22 22 20 21 21 21 21 22 22 23 24 24 25 25 25 25 27 28 28 28 29 29 29 30 30 30 31 35 39 44 48 49 49 48 50 50 48 47 47 47 48 48 47 46 46 45 45 46
13 12 13 13 12 12 11 11 10 10 9 10 9 9 15 21 23 21 19 19 20 20 21 21 21 22 23 23 23 22 22 23 23 24 25 26 28 29 30 31 31 31 32 33 37 43 47 47 47 49 50 47 45 45 47 47 46 44 43 41 41 41 43
13 13 13 13 13 12 12 11 11 10 10 9 9 11 15 18 20 20 18 18 19 19 19 20 20 21 22 23 23 21 20 19 18 18 21 22 23 25 27 30 31 31 30 30 32 35 39 42 45 46 47 47 46 46 46 45 44 41 39 40 41 42 43
13 13 13 13 13 13 12 12 12 11 11 11 11 13 16 16 17 19 20 19 18 17 18 19 19 19 21 22 21 20 19 18 18 19 21 21 21 22 23 27 30 31 30 30 30 31 32 34 36 38 40 42 44 46 45 45 45 43 41 41 42 43 43
12 13 13 13 13 13 13 13 13 12 12 12 12 13 16 16 16 19 19 16 15 17 20 21 20 19 20 20 20 19 18 18 18 21 22 23 22 21 20 21 23 25 28 29 29 30 31 31 32 33 34 35 37 41 43 45 46 46 44 43 44 45 44
11 12 12 13 13 14 13 13 13 12 12 12 12 12 14 15 16 17 16 14 16 20 23 23 22 21 20 20 19 17 15 15 16 19 20 21 21 20 19 19 19 18 20 23 26 29 30 30 31 32 33 34 34 36 40 44 44 43 44 45 45 46 42
11 12 12 13 13 14 14 13 12 12 12 12 12 12 13 14 14 14 14 15 20 23 24 25 24 22 21 21 18 15 15 15 16 17 18 18 19 19 20 22 22 20 19 21 24 27 28 29 30 30 32 33 34 34 37 41 43 42 43 44 44 46 45
11 11 12 13 14 15 14 13 13 13 13 13 13 13 13 13 14 13 13 17 21 24 25 25 24 22 22 21 17 15 15 16 16 18 20 19 19 20 23 25 24 22 22 22 23 24 25 26 28 29 29 29 31 32 33 37 42 43 42 42 41 43 45
11 12 13 14 15 15 14 14 14 15 15 15 15 14 13 13 13 13 15 19 22 24 24 24 23 23 23 21 19 18 18 18 20 22 23 23 24 27 29 30 29 27 26 24 23 22 20 21 23 27 28 28 29 31 31 32 37 42 42 41 40 40 41
11 13 15 16 17 16 15 15 16 17 17 17 16 15 12 11 11 17 19 20 22 23 24 24 25 26 26 25 25 24 24 25 25 24 24 25 28 30 32 32 32 32 31 30 29 27 23 20 18 20 24 27 28 30 30 29 32 36 39 41 41 40 39
13 15 17 17 18 17 17 17 18 19 19 18 17 14 10 7 14 21 21 21 23 25 26 26 27 28 29 28 29 29 28 28 28 27 28 28 28 28 29 31 31 31 31 31 30 30 29 26 21 18 18 21 24 27 29 29 29 31 34 37 39 40 40
14 16 17 18 18 18 19 20 21 21 19 16 14 12 10 11 19 23 22 23 25 26 27 27 28 28 29 28 29 28 28 28 27 27 28 28 28 28 27 28 29 28 28 28 26 25 26 26 24 21 18 17 21 26 28 29 29 29 30 33 36 39 40
14 15 16 18 19 21 21 22 23 21 17 14 11 11 13 16 21 25 25 24 26 26 27 28 28 29 29 28 28 27 27 27 26 25 25 26 26 26 26 26 27 26 26 25 25 23 23 23 22 23 22 20 20 24 28 29 29 29 29 31 35 39 41
12 13 16 19 21 22 22 22 22 18 15 14 13 15 18 18 22 26 26 26 27 27 28 28 27 27 27 26 25 24 23 23 23 23 23 23 23 23 23 22 23 23 22 23 24 24 24 24 23 24 26 24 21 21 25 28 29 29 28 29 32 37 41
10 13 18 20 21 21 20 20 19 15 14 15 15 18 19 18 22 27 27 28 29 28 26 25 24 23 23 22 21 21 20 20 19 19 19 19 19 19 19 20 20 19 20 21 22 22 23 23 23 22 23 24 22 20 21 23 26 29 29 28 30 34 38
8 13 19 21 20 19 18 18 15 12 12 13 13 18 16 15 21 28 28 27 27 25 23 22 21 20 20 19 19 19 19 19 19 18 18 17 16 16 17 18 18 18 19 20 20 20 19 19 19 18 17 18 21 21 19 18 20 25 29 28 28 31 34
8 13 19 19 17 15 15 15 12 9 9 9 11 17 16 14 19 27 27 24 23 22 21 20 19 19 19 18 17 18 18 18 19 19 19 18 17 16 16 17 17 17 18 18 17 16 16 16 16 16 15 14 16 20 21 19 17 19 24 28 29 30 31
12 14 16 15 13 12 13 13 10 7 6 8 13 18 17 16 20 24 23 20 20 19 19 18 17 17 18 17 17 17 17 17 18 18 18 19 19 18 18 17 17 17 17 17 15 15 16 16 15 15 15 14 15 17 20 22 20 16 17 21 26 29 31
13 13 12 10 9 11 13 13 12 9 8 11 16 18 16 15 18 19 18 17 17 16 16 16 16 16 16 17 17 17 17 17 17 17 17 18 18 18 18 18 18 18 17 16 16 16 16 15 14 15 16 16 16 16 17 19 20 18 16 16 20 25 29
10 8 8 8 8 10 12 13 12 11 11 12 15 16 15 14 16 16 16 16 15 14 14 15 15 15 16 16 16 16 16 16 17 17 17 17 17 18 18 19 18 18 17 16 16 16 15 14 15 15 16 17 17 17 17 17 17 17 17 16 16 19 23
7 6 7 8 9 9 10 11 11 11 11 11 12 12 13 14 15 14 14 14 14 14 15 15 15 15 16 16 16 16 17 17 17 17 16 16 16 16 17 18 18 17 17 18 18 17 16 16 16 17 17 16 17 17 18 18 18 17 15 15 16 16 17
7 7 8 9 9 10 10 10 10 11 11 12 12 12 12 12 12 12 13 14 14 15 16 15 15 16 16 16 17 17 17 18 18 17 17 17 17 16 17 17 16 15 17 19 19 18 18 18 18 18 17 17 17 17 17 17 18 18 17 15 15 15 16
9 10 9 9 10 10 10 10 10 10 11 12 12 12 12 11 11 12 13 14 14 15 15 15 15 15 16 16 17 18 18 18 18 18 18 17 16 16 16 16 15 15 17 19 19 18 19 19 19 18 18 17 16 16 16 15 16 18 19 18 16 14 15
Wind_Direction
278 276 275 273 273 273 272 271 270 268 267 266 265 264 262 259 257 256 257 257 257 259 261 263 263 263 264 265 265 264 264 264 264 264 263 262 261 260 258 255 251 251 259 262 256 252 254 255 261 264 262 261 260 259 258 253 249 247 246 246 247 245 242
282 280 279 277 276 274 273 273 272 270 269 268 268 267 266 264 261 260 259 258 257 258 259 261 262 262 264 266 266 265 264 265 265 265 265 263 262 262 260 257 255 255 259 263 261 256 253 252 256 261 262 261 261 259 258 256 251 249 248 247 247 247 244
288 285 283 282 280 279 277 276 275 274 272 271 270 269 268 267 266 265 264 263 262 261 261 262 263 262 262 265 265 264 264 265 265 264 264 264 263 263 263 261 258 257 259 263 263 260 254 251 256 262 263 262 261 260 258 256 252 250 249 248 248 247 246
291 289 287 286 284 283 281 280 278 276 274 272 271 270 269 269 268 268 268 268 267 266 264 264 265 264 264 265 264 264 265 264 264 264 263 264 264 263 263 263 260 259 259 262 264 263 257 252 256 263 264 262 261 259 257 254 251 248 247 247 247 247 246
293 291 289 287 285 283 282 281 279 278 276 274 273 272 272 271 271 271 270 270 270 270 269 267 267 267 267 267 266 266 266 265 265 265 264 264 265 264 264 263 261 260 260 260 262 264 262 257 254 256 259 261 261 258 254 253 250 247 247 246 246 246 246
297 294 290 287 284 282 280 279 278 278 277 276 275 274 274 274 273 273 272 271 271 271 271 271 271 270 269 268 268 267 267 267 267 265 264 263 264 264 264 263 262 261 260 260 261 264 264 261 256 252 253 257 260 258 253 251 250 247 245 245 245 245 244
302 299 296 292 289 286 283 282 280 279 278 277 276 275 274 274 273 273 273 272 272 272 271 271 271 271 270 268 268 267 267 267 266 264 263 263 264 263 262 260 260 259 258 259 260 261 261 260 258 255 254 255 257 257 254 251 249 246 243 243 244 243 243
303 301 299 297 296 294 291 289 286 284 283 281 280 278 275 273 271 271 271 271 272 272 271 271 271 271 271 270 268 268 268 267 266 265 264 264 263 262 260 258 258 257 256 257 258 258 258 258 256 255 256 255 251 251 251 248 245 245 244 244 244 243 243
305 302 300 298 297 296 295 293 291 290 289 287 288 287 283 280 277 276 277 275 274 273 271 272 272 271 271 271 270 269 268 267 266 265 264 264 264 262 260 258 257 255 255 254 255 255 255 254 253 252 253 252 250 250 251 249 245 245 245 245 245 245 244
307 304 303 301 299 297 294 293 292 290 287 285 294 300 295 288 285 281 278 277 275 275 274 273 272 272 271 271 271 270 269 269 267 265 263 263 262 261 259 258 257 255 254 253 252 253 253 250 250 251 249 251 254 255 253 251 248 247 247 245 245 245 244
308 306 305 305 305 303 300 297 293 288 281 273 282 308 303 289 283 280 275 276 278 278 280 279 277 276 275 275 274 273 271 270 268 266 264 263 261 260 258 257 256 256 255 254 252 252 251 247 249 253 251 250 256 257 254 252 251 250 248 245 242 243 243
311 310 309 310 312 311 309 306 299 291 285 272 267 311 308 291 282 281 278 279 282 283 284 284 283 282 280 279 278 276 275 273 271 269 267 264 262 260 258 256 256 256 256 255 253 252 251 249 251 255 253 250 256 259 256 254 253 252 250 246 243 244 244
314 315 314 315 319 319 316 315 310 301 296 282 263 305 311 297 286 283 281 281 284 286 286 287 287 286 284 282 281 280 280 279 277 276 273 270 267 263 260 257 256 255 255 256 256 254 255 255 255 256 256 257 261 261 257 254 254 253 250 246 245 247 247
315 317 317 316 322 325 320 321 318 310 307 296 276 297 310 299 288 285 285 286 288 289 289 289 289 290 290 288 286 286 286 285 284 283 281 279 275 271 266 261 258 255 254 255 255 256 258 260 258 257 259 262 262 260 257 255 255 254 251 250 253 256 252
317 318 318 317 323 325 321 321 321 314 310 300 290 299 305 298 292 292 292 292 292 292 291 291 291 293 294 293 292 291 291 290 291 291 289 285 280 277 273 268 263 259 255 254 254 255 257 260 259 258 259 260 257 256 257 259 259 259 258 259 260 256 247
319 318 318 320 323 324 321 320 320 317 311 302 301 301 296 297 302 303 301 300 300 298 295 295 295 295 294 293 292 293 291 289 291 292 288 286 285 283 279 273 267 263 260 258 256 256 257 259 260 259 260 259 256 254 256 257 256 254 251 250 249 245 241
320 319 321 322 322 321 321 321 320 321 316 307 308 305 301 305 310 308 309 312 310 305 301 299 298 297 296 296 294 293 291 286 282 280 277 278 281 283 284 281 275 270 265 259 256 255 255 257 260 261 260 260 258 256 255 253 249 248 245 240 239 239 240
320 320 322 322 321 321 324 325 325 324 320 313 310 310 310 313 311 310 315 318 311 307 305 303 302 303 304 304 302 299 295 291 287 284 280 278 281 285 290 290 284 279 275 268 262 257 252 251 253 254 255 257 257 256 255 252 250 249 246 238 236 239 240
321 321 321 320 320 322 324 329 329 324 320 317 314 316 319 317 315 318 322 313 303 305 307 306 309 311 310 307 306 306 306 309 311 304 293 286 285 290 290 282 275 278 283 280 273 265 259 253 250 249 250 251 251 252 253 253 254 252 247 241 241 241 237
320 319 319 318 319 322 325 328 327 322 318 316 314 318 320 318 320 326 321 305 300 303 304 307 310 310 307 306 307 314 322 326 322 308 292 283 283 288 288 280 273 272 275 277 275 272 268 262 256 252 252 251 248 246 246 249 253 252 249 247 246 243 238
318 316 316 316 317 320 324 323 320 317 314 314 316 316 317 322 328 325 308 295 296 299 302 306 308 304 302 302 302 311 321 318 299 281 275 275 277 279 278 276 275 273 271 272 274 275 274 270 264 260 258 255 253 249 245 245 248 249 250 250 248 244 242
317 314 311 313 315 317 320 319 317 317 315 317 321 317 320 333 330 306 288 286 291 298 302 304 306 304 303 304 300 299 301 297 285 275 271 270 270 269 270 273 276 276 273 272 272 273 274 274 270 266 263 261 260 257 251 246 246 247 248 249 249 248 247
316 314 312 315 316 318 323 324 323 324 324 325 325 321 332 348 316 287 284 290 296 302 305 305 306 307 307 306 303 299 296 293 290 286 281 274 270 270 273 276 278 279 277 275 273 271 271 273 273 270 265 263 263 263 261 255 250 249 248 248 248 250 251
317 315 313 314 316 322 330 329 327 331 333 332 329 324 331 330 293 284 291 301 304 306 308 308 309 309 308 306 304 301 298 295 293 290 286 281 277 276 276 277 279 281 281 280 278 275 273 273 272 271 269 267 264 264 266 265 260 255 252 249 249 249 251
315 312 311 313 320 330 335 330 329 336 338 340 339 328 317 308 296 296 305 311 309 310 311 311 311 308 306 306 304 303 301 299 296 294 290 287 285 282 280 280 281 282 282 283 283 280 276 273 271 270 270 271 266 262 262 264 263 260 256 252 249 248 249
315 314 313 317 325 332 332 328 332 337 342 355 356 327 313 313 305 304 311 314 312 313 313 313 312 311 310 311 310 309 308 306 303 301 297 295 292 288 286 284 283 283 284 283 283 280 276 272 268 264 261 263 267 265 260 258 258 258 254 250 245 242 241
325 318 313 316 323 328 327 326 332 339 352 9 358 318 312 316 306 303 312 316 316 318 318 316 316 315 315 315 313 311 309 306 304 302 299 297 295 292 290 288 285 286 286 285 282 281 280 276 272 267 261 258 263 270 266 260 257 256 253 249 245 239 237
335 313 306 312 320 323 322 324 332 346 5 10 343 312 315 323 310 307 316 320 320 322 323 322 322 320 318 318 316 314 312 310 309 308 305 301 299 296 294 291 288 286 285 283 283 284 285 283 281 277 269 260 258 264 270 268 263 258 255 251 247 242 239
328 300 300 310 318 318 317 322 333 350 7 3 325 304 315 326 311 309 317 322 323 326 328 328 329 327 326 327 327 325 325 324 323 322 319 316 312 307 302 299 298 296 292 290 290 291 291 291 288 285 280 268 257 254 257 265 267 264 260 257 252 248 243
283 285 295 306 312 309 310 319 329 344 2 355 311 299 309 314 306 310 319 325 328 331 334 335 335 335 337 339 339 339 338 336 336 335 333 332 329 324 319 313 309 307 304 303 305 303 299 297 295 292 290 282 267 254 246 243 251 261 261 258 256 254 248
275 282 293 304 306 302 307 317 321 324 334 319 299 302 311 309 306 314 324 332 336 338 338 339 341 342 345 346 346 346 345 343 342 341 340 339 337 335 333 327 322 319 316 315 317 313 307 306 304 299 293 286 278 267 254 242 238 249 260 258 255 255 254
290 290 295 302 303 301 309 317 318 314 306 296 299 311 321 317 315 324 334 340 343 342 342 346 350 350 350 350 349 347 346 344 342 341 341 340 338 337 336 333 330 328 328 327 324 320 319 319 315 307 299 290 282 277 270 256 248 253 266 265 255 254 255
301 298 299 304 303 304 310 316 319 317 311 306 311 323 330 329 332 340 345 346 348 350 352 356 358 355 353 353 350 347 345 342 338 336 335 334 333 334 333 332 333 335 334 331 328 326 326 326 322 315 309 301 291 281 275 269 262 262 270 273 265 258 256
307 308 312 313 313 315 317 321 324 323 320 325 335 339 341 345 347 347 348 350 354 359 2 2 0 358 355 353 349 346 344 341 337 333 329 326 325 327 327 328 334 338 334 330 330 331 328 325 322 321 318 314 307 295 282 275 269 267 272 277 275 270 262
317 320 323 323 324 329 333 333 333 334 337 346 354 354 353 354 352 349 353 359 1 2 2 1 359 356 353 349 347 344 341 339 335 332 327 322 320 320 321 325 331 334 331 330 332 332 328 323 319 319 319 318 314 307 298 290 280 272 269 271 275 279 274
323 325 331 336 337 338 340 340 341 345 351 354 357 359 360 359 359 0 3 5 5 3 1 358 355 353 349 346 345 342 339 338 335 332 328 323 318 316 316 320 325 326 324 326 328 329 328 325 321 319 317 317 316 312 308 304 295 283 273 268 267 272 273
Height
1439 1439 1438 1438 1437 1437 1437 1436 1436 1436 1436 1435 1434 1434 1434 1434 1434 1434 1433 1434 1434 1433 1433 1433 1433 1434 1434 1436 1436 1435 1436 1436 1438 1439 1439 1440 1440 1440 1441 1442 1443 1440 1434 1435 1441 1442 1443 1441 1438 1439 1441 1443 1444 1445 1446 1449 1451 1452 1453 1453 1453 1455 1458
1436 1435 1434 1434 1434 1433 1433 1433 1433 1432 1432 1431 1430 1430 1430 1430 1430 1430 1429 1429 1428 1428 1429 1428 1428 1428 1429 1430 1430 1430 1431 1431 1432 1433 1433 1433 1434 1434 1435 1436 1436 1435 1432 1430 1433 1437 1437 1436 1434 1434 1436 1437 1438 1440 1441 1443 1445 1446 1447 1447 1447 1449 1451
1432 1431 1431 1430 1430 1429 1429 1428 1428 1428 1427 1427 1426 1426 1426 1426 1425 1425 1424 1424 1423 1423 1424 1423 1423 1423 1424 1425 1425 1424 1425 1426 1427 1427 1427 1427 1428 1429 1429 1430 1431 1430 1428 1426 1427 1431 1432 1431 1429 1428 1430 1431 1432 1434 1436 1437 1439 1440 1441 1441 1442 1443 1445
1428 1428 1427 1426 1425 1425 1424 1424 1423 1424 1423 1423 1423 1422 1422 1421 1421 1420 1419 1419 1418 1418 1418 1418 1417 1418 1419 1420 1419 1419 1420 1420 1420 1421 1421 1421 1422 1423 1423 1424 1425 1425 1424 1423 1422 1424 1426 1427 1425 1423 1424 1425 1426 1428 1430 1431 1433 1434 1435 1435 1436 1438 1440
1425 1424 1423 1422 1422 1421 1421 1420 1420 1420 1420 1420 1419 1418 1418 1417 1416 1415 1415 1415 1414 1414 1414 1413 1412 1413 1414 1414 1414 1414 1414 1414 1415 1416 1416 1416 1416 1417 1417 1418 1419 1419 1419 1418 1417 1417 1420 1422 1421 1419 1418 1419 1420 1422 1424 1425 1426 1428 1428 1429 1430 1432 1434
1421 1420 1420 1419 1419 1418 1418 1418 1417 1417 1416 1416 1415 1414 1413 1412 1411 1411 1411 1411 1410 1410 1409 1409 1408 1408 1409 1409 1409 1409 1408 1409 1410 1411 1411 1411 1411 1411 1412 1412 1412 1412 1413 1412 1412 1413 1414 1415 1416 1415 1413 1413 1414 1416 1418 1418 1420 1421 1422 1422 1424 1426 1427
1418 1417 1417 1416 1415 1415 1414 1414 1414 1413 1412 1411 1410 1410 1409 1408 1408 1407 1407 1407 1406 1406 1405 1404 1404 1404 1404 1404 1404 1404 1404 1404 1405 1405 1406 1406 1406 1407 1407 1406 1406 1407 1407 1406 1407 1408 1408 1408 1409 1409 1408 1408 1409 1409 1411 1412 1413 1414 1415 1416 1417 1419 1420
1415 1414 1413 1412 1411 1411 1410 1410 1409 1409 1408 1407 1407 1406 1406 1405 1405 1404 1403 1403 1402 1401 1401 1400 1400 1399 1399 1399 1399 1399 1399 1399 1400 1400 1400 1400 1401 1401 1401 1401 1401 1401 1401 1401 1401 1402 1402 1403 1403 1403 1402 1403 1404 1402 1402 1405 1406 1407 1408 1410 1411 1413 1415
1412 1411 1410 1409 1408 1408 1407 1406 1406 1406 1405 1405 1405 1404 1403 1402 1401 1400 1400 1399 1398 1397 1396 1396 1396 1395 1395 1395 1395 1395 1395 1394 1395 1395 1394 1395 1396 1396 1396 1396 1396 1396 1396 1396 1396 1396 1397 1397 1397 1397 1397 1396 1395 1394 1395 1399 1400 1401 1403 1404 1406 1408 1409
1409 1408 1407 1407 1406 1406 1405 1404 1404 1404 1403 1403 1403 1402 1401 1399 1398 1397 1396 1395 1394 1393 1392 1392 1392 1391 1391 1391 1391 1391 1390 1390 1390 1390 1390 1390 1390 1391 1391 1391 1391 1391 1391 1391 1390 1390 1391 1391 1390 1391 1392 1389 1388 1389 1391 1393 1394 1395 1397 1399 1400 1401 1402
1407 1406 1405 1404 1404 1403 1403 1402 1401 1401 1401 1400 1400 1400 1398 1396 1395 1394 1393 1391 1390 1389 1389 1388 1388 1387 1387 1387 1387 1386 1386 1386 1385 1385 1385 1385 1385 1386 1386 1386 1385 1385 1385 1386 1385 1385 1385 1385 1384 1384 1386 1385 1384 1385 1386 1386 1388 1389 1392 1393 1393 1394 1395
1405 1404 1403 1402 1401 1401 1400 1399 1399 1398 1397 1397 1397 1396 1394 1392 1391 1390 1389 1388 1387 1386 1385 1384 1384 1383 1383 1383 1382 1382 1381 1381 1380 1380 1380 1380 1380 1380 1380 1380 1380 1380 1379 1379 1379 1379 1379 1378 1378 1378 1380 1380 1379 1379 1381 1381 1382 1383 1384 1386 1386 1387 1388
1403 1402 1400 1399 1399 1398 1397 1396 1396 1395 1394 1393 1393 1393 1391 1388 1387 1387 1386 1385 1384 1383 1382 1381 1380 1379 1379 1378 1378 1377 1377 1376 1376 1375 1375 1375 1375 1374 1374 1375 1374 1374 1374 1373 1373 1372 1371 1372 1373 1373 1374 1374 1374 1375 1376 1376 1376 1377 1378 1379 1380 1381 1383
1401 1399 1398 1397 1397 1396 1395 1394 1393 1392 1391 1391 1390 1390 1388 1384 1383 1384 1383 1382 1381 1380 1379 1378 1377 1376 1375 1375 1374 1374 1373 1373 1372 1371 1370 1370 1370 1369 1369 1369 1368 1369 1369 1368 1367 1366 1364 1366 1367 1367 1367 1369 1370 1370 1370 1371 1371 1372 1373 1374 1375 1378 1380
1398 1397 1396 1395 1394 1394 1392 1391 1391 1390 1389 1388 1388 1387 1385 1381 1380 1381 1380 1379 1378 1377 1376 1375 1374 1373 1373 1372 1372 1372 1371 1370 1369 1368 1367 1366 1365 1364 1364 1363 1363 1363 1363 1362 1362 1361 1360 1360 1361 1362 1362 1365 1365 1365 1364 1365 1366 1368 1370 1371 1372 1374 1374
1396 1395 1394 1393 1392 1391 1390 1389 1388 1388 1387 1386 1385 1383 1381 1379 1378 1377 1377 1376 1375 1374 1373 1372 1372 1372 1371 1369 1369 1369 1369 1368 1367 1366 1364 1362 1361 1360 1359 1358 1358 1358 1358 1357 1357 1357 1356 1356 1356 1357 1358 1359 1360 1359 1360 1361 1362 1364 1366 1366 1367 1367 1368
1394 1392 1391 1390 1390 1389 1388 1387 1386 1386 1384 1383 1382 1380 1378 1377 1376 1375 1374 1373 1372 1371 1371 1370 1370 1369 1368 1367 1366 1366 1366 1365 1364 1362 1360 1359 1357 1356 1355 1354 1353 1353 1352 1352 1352 1352 1352 1352 1352 1352 1353 1353 1354 1353 1355 1356 1356 1357 1359 1360 1360 1361 1362
1392 1390 1389 1388 1387 1387 1386 1385 1384 1384 1382 1381 1380 1378 1376 1375 1374 1373 1372 1371 1370 1369 1369 1368 1367 1367 1365 1364 1363 1363 1362 1362 1361 1359 1357 1355 1354 1352 1351 1350 1348 1347 1346 1346 1346 1346 1346 1346 1346 1347 1347 1348 1349 1348 1348 1348 1348 1350 1353 1354 1354 1355 1357
1390 1388 1387 1386 1385 1385 1384 1384 1383 1382 1380 1379 1378 1377 1375 1373 1372 1371 1371 1370 1368 1367 1366 1365 1364 1364 1363 1361 1360 1360 1359 1359 1358 1356 1353 1351 1350 1349 1347 1345 1343 1343 1342 1341 1341 1341 1341 1341 1341 1341 1341 1342 1343 1344 1343 1341 1342 1345 1346 1347 1348 1350 1353
1388 1387 1386 1385 1384 1383 1382 1382 1381 1380 1379 1378 1377 1375 1374 1372 1371 1370 1369 1368 1366 1365 1364 1363 1362 1361 1360 1359 1358 1357 1357 1357 1356 1352 1349 1348 1347 1346 1342 1340 1339 1340 1339 1338 1337 1336 1336 1336 1336 1336 1336 1336 1337 1338 1338 1337 1337 1339 1340 1341 1343 1345 1346
1387 1386 1384 1383 1383 1382 1381 1381 1380 1379 1377 1376 1375 1374 1372 1371 1370 1369 1367 1365 1364 1362 1361 1360 1359 1357 1356 1356 1355 1354 1353 1352 1350 1348 1346 1345 1344 1341 1338 1336 1336 1337 1336 1335 1334 1333 1332 1332 1332 1332 1331 1331 1332 1332 1334 1333 1332 1333 1334 1337 1339 1340 1341
1386 1384 1383 1382 1382 1381 1380 1379 1378 1377 1375 1374 1373 1372 1371 1370 1368 1366 1364 1363 1361 1360 1358 1357 1355 1354 1353 1352 1351 1350 1349 1348 1345 1344 1343 1342 1340 1337 1335 1334 1334 1333 1332 1332 1331 1330 1329 1329 1329 1328 1327 1328 1328 1328 1329 1330 1329 1328 1330 1332 1334 1335 1337
1384 1383 1382 1381 1380 1379 1378 1377 1375 1374 1372 1371 1370 1369 1369 1369 1365 1362 1361 1360 1358 1357 1355 1354 1352 1351 1349 1348 1347 1346 1344 1343 1341 1340 1339 1337 1335 1334 1332 1331 1330 1329 1328 1328 1327 1327 1326 1326 1326 1325 1324 1324 1324 1324 1324 1325 1325 1325 1326 1327 1329 1330 1332
1383 1382 1380 1379 1378 1377 1376 1375 1373 1372 1370 1369 1367 1366 1367 1366 1361 1358 1358 1358 1356 1354 1352 1351 1349 1348 1346 1344 1343 1341 1340 1338 1337 1335 1334 1332 1331 1330 1329 1327 1326 1325 1324 1323 1323 1323 1322 1322 1322 1322 1322 1321 1321 1321 1320 1321 1321 1322 1322 1323 1325 1326 1328
1381 1380 1379 1377 1376 1375 1374 1372 1371 1369 1368 1366 1365 1363 1363 1362 1358 1355 1356 1355 1353 1351 1350 1348 1347 1344 1342 1341 1339 1337 1335 1334 1332 1331 1329 1327 1326 1325 1325 1323 1322 1321 1320 1319 1319 1319 1318 1318 1319 1319 1318 1318 1317 1316 1316 1317 1317 1318 1318 1319 1320 1322 1324
1379 1378 1376 1375 1374 1373 1371 1370 1368 1367 1366 1364 1363 1361 1360 1359 1355 1352 1353 1352 1350 1349 1347 1345 1343 1341 1338 1337 1335 1333 1331 1329 1328 1326 1325 1324 1322 1321 1320 1319 1318 1317 1316 1315 1315 1314 1314 1314 1314 1314 1314 1314 1313 1312 1312 1313 1313 1313 1314 1315 1316 1317 1318
1377 1376 1374 1373 1372 1371 1369 1367 1367 1365 1364 1363 1361 1359 1358 1356 1352 1350 1350 1349 1347 1346 1344 1341 1339 1337 1335 1333 1331 1330 1328 1326 1324 1323 1322 1320 1319 1318 1317 1316 1315 1314 1313 1312 1311 1310 1309 1309 1309 1309 1309 1310 1310 1310 1309 1309 1309 1309 1310 1311 1312 1313 1313
1375 1374 1372 1371 1370 1369 1367 1366 1365 1364 1362 1362 1361 1357 1356 1354 1349 1346 1347 1346 1343 1342 1340 1338 1336 1334 1332 1331 1329 1327 1325 1324 1322 1321 1319 1318 1317 1315 1314 1313 1312 1311 1310 1309 1308 1307 1306 1305 1305 1305 1305 1306 1306 1306 1306 1306 1306 1305 1306 1307 1308 1308 1308
1374 1372 1370 1369 1368 1367 1365 1364 1364 1363 1362 1363 1360 1356 1355 1353 1347 1344 1345 1344 1341 1339 1338 1335 1334 1332 1330 1328 1326 1324 1323 1321 1319 1318 1316 1315 1314 1313 1311 1310 1309 1308 1307 1306 1305 1305 1303 1303 1302 1302 1302 1302 1302 1302 1303 1304 1304 1303 1302 1303 1303 1303 1304
1373 1370 1368 1368 1367 1365 1364 1363 1363 1362 1362 1362 1358 1354 1354 1352 1347 1343 1343 1342 1339 1338 1336 1334 1332 1330 1328 1326 1325 1323 1321 1319 1318 1316 1315 1313 1312 1311 1310 1308 1307 1306 1305 1304 1303 1302 1301 1300 1300 1299 1299 1299 1298 1298 1298 1299 1300 1300 1299 1299 1298 1299 1300
1370 1368 1367 1366 1365 1364 1362 1361 1361 1360 1360 1358 1355 1352 1352 1350 1345 1343 1342 1340 1338 1336 1334 1332 1331 1329 1327 1325 1324 1322 1321 1319 1317 1316 1314 1313 1311 1310 1308 1307 1305 1304 1303 1302 1301 1300 1299 1299 1298 1297 1296 1296 1295 1295 1294 1295 1296 1296 1296 1296 1295 1294 1295
1368 1366 1365 1364 1363 1362 1360 1359 1358 1358 1357 1355 1352 1350 1349 1347 1344 1342 1340 1338 1337 1335 1333 1332 1330 1328 1326 1325 1323 1322 1320 1319 1317 1316 1314 1312 1311 1309 1308 1306 1304 1303 1302 1301 1300 1299 1298 1297 1296 1295 1294 1293 1293 1292 1292 1292 1293 1293 1293 1293 1292 1291 1291
1365 1364 1363 1362 1361 1360 1358 1357 1356 1355 1354 1352 1350 1348 1347 1345 1342 1340 1339 1337 1336 1334 1332 1331 1329 1327 1326 1324 1323 1321 1320 1318 1317 1315 1314 1312 1311 1309 1307 1306 1304 1303 1302 1300 1299 1298 1297 1296 1294 1293 1292 1291 1290 1290 1289 1289 1289 1289 1289 1290 1290 1289 1288
1363 1363 1362 1361 1360 1358 1357 1356 1354 1353 1352 1350 1349 1347 1345 1343 1341 1339 1338 1337 1335 1333 1332 1330 1328 1327 1325 1324 1322 1321 1319 1318 1316 1315 1313 1312 1310 1309 1307 1305 1304 1303 1301 1299 1298 1297 1296 1294 1293 1292 1290 1289 1288 1288 1287 1287 1287 1287 1287 1287 1286 1286 1286
1361 1361 1360 1359 1357 1356 1355 1354 1352 1351 1349 1348 1347 1345 1344 1342 1341 1339 1338 1336 1334 1332 1331 1329 1328 1326 1325 1323 1322 1320 1319 1317 1316 1314 1312 1311 1309 1308 1306 1305 1303 1302 1300 1299 1297 1296 1294 1293 1292 1290 1289 1288 1287 1286 1285 1284 1284 1284 1283 1283 1283 1283 1284
1360 1359 1358 1357 1356 1354 1353 1352 1351 1349 1348 1347 1346 1344 1343 1342 1340 1339 1337 1335 1333 1332 1330 1329 1327 1326 1324 1323 1321 1320 1318 1316 1314 1313 1311 1310 1308 1306 1305 1304 1303 1302 1300 1298 1297 1295 1293 1292 1290 1289 1288 1287 1285 1284 1284 1283 1282 1281 1280 1280 1280 1280 1280